Weather in Svetlyy

Russia / Arkhangel'skaya Oblast'     64°02′31″N   42°41′50″E
temp.,
°C
wind,
m/s
gust,
m/s
humid.,
%
clouds,
%
prec.,
mm/h
press.,
hPa
HPBL,
m
28 september, tue
tue2800:00+8ssw2385100 0.0 1032101
03:00+8sw2385100 0.0 103383
06:00+5wsw249629 0.0 103376
09:00+8wsw2582100 0.0 1033251
12:00+11w3468100 0.0 1032615
15:00+11w3465100 0.0 1032657
18:00+8w228895 0.0 103231
21:00+7wnw229440 0.0 103225
29 september, wed
wed2900:00+6wnw229654 0.0 103320
03:00+6wnw229770 0.0 103348
06:00+5w229865 0.0 103256
09:00+8wnw2485100 0.0 1032191
12:00+11w3474100 0.0 1032379
15:00+12w377198 0.0 1031520
18:00+9wnw310805 0.0 1031311
21:00+7wnw3128229 0.0 1031330
30 september, thu
thu3000:00+6wnw311925 0.0 1031274
03:00+5wnw311965 0.0 1031253
06:00+5wnw299636 0.0 1031212
09:00+8wnw38835 0.0 1031285
12:00+12wnw466650 0.0 1031623
15:00+13wnw366528 0.0 1031800
18:00+8wnw268973 0.0 1031137
21:00+6wnw279528 0.0 1031159
1 october, fri
fri100:00+5wnw259644 0.0 1031109
03:00+4w259714 0.0 103199
06:00+4w239850 0.0 103057
09:00+6w248890 0.0 1030194
12:00+10w347319 0.0 1030600
15:00+11w35655 0.0 1029856
18:00+7wsw22875 0.0 102832
21:00+5sw24925 0.0 102879
2 october, sat
sat200:00+5sw26955 0.0 1027123
03:00+4sw269656 0.0 1027131
06:00+3sw2797100 0.0 1026158
09:00+6sw398494 0.0 1026285
12:00+10sw466793 0.0 1025559
15:00+10sw377510 0.0 1025476
18:00+7ssw2693100 0.0 1025121
21:00+8ssw2887100 0.0 1025219